Location: Debolt
(55.2626°N, 118.0981°W)
Time: 13:42:36
(UTC+00:00)

Max Valier Satellite - Visible Passes

Search period start: 08 December 2023 00:00
Search period end: 18 December 2023 00:00
Orbit: 411 x 419 km, 97.1° (Epoch: 07 December)

Date Brightness Start Highest point End Pass type
(mag) Time Alt. Az. Time Alt. Az. Time Alt. Az.
09 Dec ? 15:06:19 10° ENE 15:08:02 14° E 15:09:45 10° ESE visible
11 Dec ? 15:06:47 10° NE 15:08:33 14° E 15:10:16 10° ESE visible
13 Dec ? 15:07:04 10° NE 15:08:49 14° E 15:10:35 10° ESE visible
15 Dec ? 15:07:08 10° NE 15:08:54 14° E 15:10:39 10° ESE visible
17 Dec ? 15:07:00 10° NE 15:08:45 14° E 15:10:30 10° ESE visible
